Weather History for Russell, KS

Change the Weather History Date:

Friday, December 14, 2012

  Actual Average Record
Temperature  
Mean Temperature 42 °F -  
Max Temperature 57 °F 41 °F 65 °F (1966)
Min Temperature 28 °F 20 °F -11 °F (1963)
Degree Days  
Heating Degree Days 22    
Moisture  
Dew Point 37 °F    
Average Humidity 78    
Maximum Humidity 93    
Minimum Humidity 59    
Precipitation  
Precipitation 0.18 in - - ()
Sea Level Pressure  
Sea Level Pressure 29.75 in    
Wind  
Wind Speed 13 mph (SSE)    
Max Wind Speed 21 mph    
Max Gust Speed 30 mph    
Visibility 9 miles    
Events Rain    
Averages and records for this station are not official NWS values.
T = Trace of Precipitation, MM = Missing Value Source: NWS Daily Summary

Daily Weather History Graph

Daily Weather History Graph

Search for Another Location

Airport:

Trip Planner

Search our weather history database for the weather conditions in past years. The results will help you decide how hot, cold, wet, or windy it might be!

Date:

Astronomy

Dec. 14, 2012 Rise Set
Actual Time 7:46 AM CST 5:14 PM CST
Civil Twilight 7:16 AM CST 5:44 PM CST
Nautical Twilight 6:42 AM CST 6:17 PM CST
Astronomical Twilight 6:10 AM CST 6:49 PM CST
Moon 8:52 AM CST (12/14) 7:07 PM CST (12/14)
Length of Visible Light 10h 27m
Length of Day
9h 27m
Waxing Crescent, 3% of the Moon is Illuminated
Dec 14
Waxing Crescent
Dec 19
First Quarter
Dec 28
Full
Jan 4
Last Quarter
Jan 11
New

Hourly Weather History & Observations

Time (CST) Temp. Windchill Dew Point Humidity Pressure Visibility Wind Dir Wind Speed Gust Speed Precip Events Conditions
12:53 AM 30.0 °F 21.7 °F 19.9 °F 66% 29.97 in 10.0 mi South 9.2 mph - N/A   Clear
1:53 AM 28.0 °F - 19.9 °F 72% 29.95 in 10.0 mi North - - N/A   Clear
2:53 AM 30.9 °F 22.8 °F 21.9 °F 69% 29.95 in 10.0 mi South 9.2 mph - N/A   Clear
3:53 AM 32.0 °F 23.0 °F 23.0 °F 69% 29.95 in 10.0 mi South 11.5 mph - N/A   Clear
4:53 AM 34.0 °F 25.0 °F 25.0 °F 70% 29.93 in 10.0 mi South 12.7 mph - N/A   Clear
5:53 AM 34.0 °F 25.5 °F 26.1 °F 73% 29.92 in 10.0 mi South 11.5 mph - N/A   Clear
6:53 AM 37.0 °F 28.5 °F 28.9 °F 73% 29.91 in 10.0 mi South 13.8 mph - N/A   Clear
7:53 AM 37.0 °F 28.1 °F 28.9 °F 73% 29.91 in 10.0 mi South 15.0 mph - N/A   Clear
8:53 AM 37.0 °F 29.8 °F 30.0 °F 76% 29.91 in 10.0 mi South 10.4 mph - N/A   Clear
9:53 AM 45.0 °F 38.2 °F 35.1 °F 68% 29.90 in 10.0 mi South 15.0 mph - N/A   Clear
10:53 AM 46.9 °F - 37.0 °F 68% 29.88 in 10.0 mi SSE 17.3 mph - N/A   Clear
11:53 AM 50.0 °F - 39.0 °F 66% 29.85 in 10.0 mi South 20.7 mph - N/A   Clear
12:53 PM 55.0 °F - 41.0 °F 59% 29.78 in 10.0 mi South 17.3 mph 23.0 mph N/A   Clear
1:53 PM 57.0 °F - 43.0 °F 59% 29.74 in 10.0 mi South 18.4 mph 24.2 mph N/A   Clear
2:53 PM 55.9 °F - 42.1 °F 60% 29.73 in 10.0 mi South 19.6 mph 29.9 mph N/A   Mostly Cloudy
3:50 PM 51.8 °F - 46.4 °F 82% 29.68 in 10.0 mi SSE 15.0 mph - 0.02 in Rain Light Rain
3:53 PM 51.1 °F - 46.0 °F 83% 29.70 in 10.0 mi SSE 15.0 mph - 0.02 in Rain Light Rain
4:53 PM 50.0 °F - 45.0 °F 83% 29.68 in 10.0 mi SSE 17.3 mph 24.2 mph 0.01 in Rain Light Rain
5:53 PM 48.9 °F - 45.0 °F 86% 29.68 in 10.0 mi SSE 13.8 mph - 0.03 in Rain Light Rain
6:34 PM 48.2 °F - 46.4 °F 93% 29.64 in 10.0 mi SSE 13.8 mph - 0.00 in   Overcast
6:45 PM 48.2 °F - 46.4 °F 93% 29.63 in 7.0 mi SSE 15.0 mph - 0.00 in   Overcast
6:53 PM 48.0 °F - 46.0 °F 93% 29.65 in 7.0 mi SE 15.0 mph - 0.00 in   Overcast
7:53 PM 48.9 °F - 46.9 °F 93% 29.60 in 3.0 mi SE 16.1 mph - 0.00 in Rain Light Rain
8:17 PM 48.2 °F - 46.4 °F 93% 29.55 in 2.5 mi SE 17.3 mph - 0.05 in Rain Heavy Rain
9:53 PM 46.9 °F - 45.0 °F 93% 29.46 in 8.0 mi SE 16.1 mph - 0.06 in   Overcast
10:53 PM 46.0 °F 39.9 °F 44.1 °F 93% 29.44 in 7.0 mi SSE 13.8 mph 23.0 mph 0.00 in   Overcast
11:53 PM 46.0 °F 40.6 °F 44.1 °F 93% 29.39 in 8.0 mi SSE 11.5 mph - 0.06 in Rain Light Rain